Preview of NWS' New Version of Forecast
This preview is not operational and should not be used for support decisions.

Regional Weather Roundup (RWR)

Issued by National Weather Service (NWS)

                            
000
ASPQ40 PGUM 190110
RWRPQ 
WEATHER ROUNDUP FOR THE MARIANAS AND MICRONESIA
NATIONAL WEATHER SERVICE TIYAN GU
1100 AM CHST WED JUN 19 2019

GUZ001>004-190200-
MARIANA ISLANDS-
  
CITY           SKY/WX    TMP DP  RH WIND       PRES   REMARKS
GUAM AIRPORT   MOSUNNY   88  72  58 E14       29.87F HX  94           
ANDERSEN AFB   MOSUNNY   86  73  66 SE12      29.87F HX  93           
ROTA AIRPORT   MOSUNNY   86  70  58 E16       29.86F HX  90           
TINIAN AP      MOSUNNY   88  73  62 SE14      29.85F HX  96           
SAIPAN AP      MOSUNNY   88  75  66 SE17      29.86F HX  97           

$$

PMZ161-190200-
REPUBLIC OF PALAU-
  
CITY           SKY/WX    TMP DP  RH WIND       PRES   REMARKS
KOROR AP       PTSUNNY   84  77  79 E6        29.79F HX  94           
KOROR WSO      NOT AVBL                                               

$$

PMZ171>174-190200-
FEDERATED STATES OF MICRONESIA-
  
CITY           SKY/WX    TMP DP  RH WIND       PRES   REMARKS
YAP AIRPORT    MOSUNNY   90  81  74 E8        29.80F HX 108           
CHUUK AP       CLOUDY    82  77  83 VRB5      29.83F HX  91           
POHNPEI AP     CLOUDY    81  77  89 SE5       29.84F                  
POHNPEI WSO    CLOUDY    81  77  89 SE3       29.86F                  
KOSRAE AP      NOT AVBL                                               

$$

PMZ181-190200-
REPUBLIC OF THE MARSHALL ISLANDS-
  
CITY           SKY/WX    TMP DP  RH WIND       PRES   REMARKS
KWAJALEIN AP   MOSUNNY   88  77  70 E14       29.81F HX 100           
MAJURO AP      NOT AVBL                                               
MAJURO WSO     PTSUNNY   86  79  79 E7        29.77F HX  99           

$$